Location: Pedro
(43.9050°N, 104.3408°W)
Time: 14:37:20
(UTC+00:00)

SO-50 - Pass Details

Date: 06 December 2023
Orbit: 608 x 660 km, 64.6° (Epoch: 02 March)

Event Time Altitude Azimuth Distance (km) Brightness Sun altitude
Exits shadow 11:47:30 10° 8° (N) 2,034 ? -26.1°
Drops below altitude 10° 11:47:34 10° 9° (N) 2,050 ? -26.1°
Sets 11:50:27 0° 27° (NNE) 2,952 ? -25.6°
